Wind_Speed
28 27 27 26 27 26 25 24 23 22 21 20 19 17 16 14 13 12 10 9 8 7 6 5 4 2 1 2 2 2 2 3 4 5 5 6 7 7 8 8 9 9 10
30 29 28 28 28 28 27 26 25 24 23 22 21 19 18 16 14 13 12 10 9 8 7 6 5 4 3 2 2 2 3 3 4 5 5 6 7 8 8 8 9 10 11
32 31 30 30 30 30 29 28 27 26 25 23 22 21 20 18 16 15 14 12 11 10 8 7 6 5 4 4 3 3 3 4 4 5 6 6 7 8 8 8 9 10 11
35 33 33 32 32 32 31 30 29 28 26 25 24 23 22 20 18 17 15 14 13 11 10 8 7 6 5 5 4 4 4 4 5 5 6 6 7 8 8 9 10 11 12
37 36 35 35 34 34 33 32 31 30 28 27 26 25 23 22 20 18 17 16 14 13 11 10 8 8 7 6 6 5 5 5 5 6 6 6 7 8 8 9 10 11 13
40 39 38 37 36 36 35 35 33 32 31 29 28 27 25 24 22 20 19 17 16 15 13 11 10 9 8 7 7 6 6 6 7 7 7 7 8 8 9 10 11 12 13
42 42 41 39 38 38 37 37 36 34 33 31 30 28 27 25 23 22 20 19 18 16 15 13 12 11 10 9 8 8 8 8 8 8 8 8 8 9 10 11 12 13 14
45 44 44 42 41 40 39 39 38 37 35 34 32 30 28 27 25 23 22 21 20 18 17 15 14 12 11 10 10 10 9 9 9 9 9 9 10 10 11 12 13 14 15
48 47 46 45 43 42 42 41 40 38 37 36 34 32 30 28 27 25 24 23 21 20 18 17 16 14 13 12 11 11 11 11 11 11 10 10 11 12 12 13 14 15 16
51 50 49 48 46 45 44 43 42 40 39 38 36 34 32 30 29 27 26 25 23 22 20 19 17 16 14 14 13 12 12 12 12 12 12 12 12 13 13 15 16 17 18
54 53 51 50 49 47 46 45 44 43 41 40 38 36 34 32 31 29 28 26 25 23 22 20 19 18 16 15 15 14 14 14 13 13 13 13 14 14 15 16 17 18 19
56 55 53 52 51 50 48 47 46 45 43 41 39 37 36 34 33 31 30 28 27 25 23 22 21 20 18 17 17 16 15 15 15 15 15 15 15 16 17 18 19 19 20
58 57 55 54 53 52 50 48 47 46 45 43 41 39 37 36 34 33 31 30 29 27 25 24 22 21 20 19 18 17 17 17 16 16 16 17 17 17 18 19 20 20 21
60 59 58 57 55 54 52 50 49 48 46 45 43 41 39 37 35 34 33 31 30 29 27 26 24 23 22 21 20 19 18 18 18 18 18 18 18 19 19 20 21 22 23
62 61 60 59 57 56 54 52 50 49 47 46 45 43 41 39 37 35 34 33 31 30 29 27 26 25 24 23 22 21 20 20 20 20 20 20 20 20 21 22 23 24 25
63 62 61 60 59 58 56 54 52 51 49 48 46 44 43 41 39 37 36 34 33 32 30 29 27 26 25 25 24 23 22 22 22 22 21 22 22 22 23 24 24 26 27
65 64 63 62 61 59 58 56 53 52 51 49 48 46 44 42 40 39 37 35 34 32 31 30 29 28 27 26 25 24 24 24 23 23 23 23 23 24 25 26 26 27 29
66 65 64 63 62 61 59 58 56 54 53 51 49 47 45 44 42 40 38 37 35 33 32 31 30 29 28 27 26 25 25 25 25 25 25 25 25 26 26 27 28 29 30
66 66 65 64 62 61 60 58 57 56 54 53 51 49 47 45 43 42 40 38 36 34 33 32 31 30 29 28 27 27 27 27 27 26 27 27 27 27 28 29 30 31 32
67 67 66 65 63 62 61 59 58 56 55 54 52 50 49 47 45 43 41 39 37 36 34 33 32 31 30 30 29 28 28 29 28 28 29 29 29 29 30 30 31 32 34
67 67 67 66 64 62 61 59 58 56 55 54 53 51 50 48 46 44 42 40 38 37 35 34 33 32 31 31 31 30 30 30 30 30 30 30 30 31 32 32 33 34 35
66 67 67 67 65 63 61 59 59 56 54 54 53 52 50 49 48 46 44 42 40 38 36 36 35 33 33 32 32 32 32 31 31 31 32 32 32 33 33 34 34 35 36
66 67 67 66 65 63 61 59 59 58 55 54 52 52 51 49 48 47 46 44 42 40 38 37 36 35 34 34 33 33 33 33 33 33 33 33 34 34 34 35 35 36 37
65 66 66 66 66 64 62 60 59 57 55 52 52 52 51 50 49 48 46 45 43 42 40 39 38 37 36 35 34 34 34 34 34 34 34 34 34 35 35 36 37 37 38
64 65 66 66 66 65 63 60 58 56 54 53 52 52 51 50 49 48 47 45 44 43 42 41 40 39 38 37 36 35 35 35 35 35 35 35 35 36 36 37 37 37 39
65 65 65 66 65 65 63 62 59 56 56 54 52 52 51 50 49 48 47 46 44 44 43 42 41 40 39 38 37 36 36 36 35 36 36 36 36 36 36 37 38 38 39
Wind_Direction
235 232 230 228 226 224 222 222 222 221 220 220 220 219 218 219 220 221 220 219 216 214 214 212 215 216 236 262 278 307 326 336 343 347 347 346 343 342 342 342 344 344 344
235 233 230 229 227 225 223 222 222 221 221 221 222 221 221 221 223 224 223 221 218 218 219 219 223 229 242 257 271 289 307 320 327 334 338 338 340 340 341 343 343 343 343
234 232 230 229 227 226 224 223 223 222 222 222 222 222 222 223 225 227 225 223 220 220 222 225 231 238 244 258 268 277 293 305 314 323 328 331 335 338 340 342 341 342 342
234 232 230 229 227 226 225 223 224 223 223 222 223 223 223 225 226 227 226 225 223 223 225 229 235 242 247 256 264 268 280 293 305 313 318 324 330 334 337 338 338 339 340
232 231 230 228 227 225 225 224 224 224 224 223 223 224 224 226 227 227 226 226 225 225 227 231 236 242 247 254 259 262 272 283 294 304 310 317 324 328 333 333 334 336 337
232 230 228 227 227 225 224 224 224 225 225 224 224 224 225 226 227 227 227 226 226 227 230 233 238 242 246 253 257 260 269 278 286 296 302 310 317 322 326 327 328 330 333
231 230 227 226 226 225 224 224 223 224 225 225 225 225 226 226 227 227 227 226 227 228 231 235 240 244 247 252 257 260 266 274 281 288 294 302 309 314 319 321 322 326 329
230 229 227 225 224 225 224 224 223 223 225 226 226 226 226 227 227 227 228 227 228 230 233 236 240 244 247 252 256 258 264 271 279 284 289 296 304 308 313 317 319 322 325
229 227 226 225 224 224 224 224 223 223 224 226 226 226 227 228 228 227 228 229 229 231 234 236 239 243 247 251 255 259 263 269 276 281 284 291 300 306 309 313 317 319 322
228 226 225 225 224 223 223 223 223 223 223 225 226 226 227 228 228 228 229 230 231 233 236 237 240 243 247 251 255 259 263 267 272 278 281 288 296 302 307 309 312 315 318
226 225 224 224 223 223 223 223 223 223 223 224 226 227 227 228 228 229 230 231 232 234 237 238 241 243 247 251 255 259 264 266 271 276 280 286 292 298 303 306 309 312 315
225 224 223 222 222 223 223 223 223 224 224 224 225 226 227 228 229 229 230 232 233 235 237 239 242 245 248 251 254 259 263 266 271 275 279 284 289 294 300 304 307 309 313
223 223 222 221 221 222 222 223 223 224 224 224 224 225 227 228 229 230 231 233 234 236 238 240 243 246 248 251 254 259 263 266 270 274 278 282 287 292 297 302 306 308 311
221 221 220 220 220 220 221 222 223 224 224 224 225 225 227 228 229 231 231 233 235 236 238 241 244 246 249 251 254 258 262 265 269 273 277 281 285 290 295 300 304 307 310
219 219 219 219 219 219 220 221 222 223 224 225 225 226 227 228 229 231 231 233 235 237 239 241 244 247 249 251 255 258 261 265 268 271 276 279 283 288 293 298 301 305 308
217 217 218 218 218 218 219 221 221 223 223 225 225 226 227 228 229 231 232 233 235 237 240 242 244 248 250 251 254 257 260 264 268 271 275 278 282 287 291 295 299 302 306
215 216 216 217 217 218 219 220 220 222 223 224 225 226 227 228 229 231 232 233 235 237 240 242 244 247 250 252 255 258 260 264 268 271 274 278 281 286 290 294 297 301 304
214 214 215 216 217 217 218 219 220 221 222 224 225 225 226 227 229 230 232 233 235 237 240 242 244 247 249 252 255 258 261 264 268 271 274 277 281 285 290 293 296 299 303
213 213 214 215 216 217 218 219 220 221 222 223 225 225 226 227 229 230 232 233 235 237 240 242 244 246 248 251 255 259 261 264 267 271 274 278 281 284 289 292 296 299 302
213 212 213 214 215 217 218 218 219 221 222 223 224 225 226 228 229 230 231 233 235 237 239 241 244 246 249 252 256 259 262 264 267 271 274 277 280 284 288 291 295 298 301
212 212 212 213 214 216 217 218 219 220 222 223 224 225 226 227 229 230 231 233 235 237 239 242 244 247 250 253 257 260 262 265 268 271 274 277 280 284 288 291 294 297 300
211 211 211 212 214 215 217 218 219 221 222 223 224 225 226 228 229 230 231 233 234 237 240 242 244 247 251 254 257 260 263 265 268 271 274 277 280 284 287 290 293 296 299
211 211 211 212 213 214 216 218 220 221 222 222 224 226 227 228 229 230 231 233 235 237 240 243 245 248 251 255 258 261 263 266 269 272 274 277 280 283 286 289 292 296 298
210 211 211 211 212 214 216 217 220 221 222 223 225 226 227 228 229 230 232 233 235 237 241 243 246 249 252 255 258 261 264 266 269 272 274 277 280 283 286 289 292 295 297
209 210 210 211 213 214 215 216 219 221 221 223 224 225 226 228 229 230 231 233 236 238 241 244 246 249 252 255 258 261 264 266 269 271 275 277 280 283 286 289 292 294 296
209 209 209 210 212 213 214 216 218 220 221 223 224 226 227 228 229 230 231 234 236 239 241 244 247 250 252 254 257 261 264 266 269 272 275 278 280 283 286 289 291 294 296
Height
5854 5856 5858 5860 5862 5864 5866 5868 5869 5871 5872 5873 5875 5876 5876 5877 5878 5879 5879 5879 5879 5879 5878 5878 5878 5878 5878 5878 5877 5877 5876 5875 5875 5874 5873 5872 5871 5870 5869 5868 5866 5865 5863
5849 5852 5854 5856 5858 5860 5862 5864 5866 5868 5869 5871 5872 5873 5874 5875 5876 5877 5877 5877 5877 5877 5877 5877 5877 5877 5877 5877 5876 5876 5875 5875 5874 5873 5872 5871 5870 5869 5868 5867 5865 5864 5862
5844 5846 5849 5851 5854 5856 5858 5860 5862 5864 5866 5868 5869 5870 5872 5873 5874 5875 5875 5875 5875 5875 5876 5876 5876 5876 5876 5876 5875 5875 5874 5874 5873 5872 5871 5870 5869 5868 5867 5866 5864 5863 5861
5838 5841 5843 5846 5849 5851 5854 5856 5859 5861 5863 5864 5866 5867 5869 5870 5871 5872 5873 5873 5874 5874 5874 5874 5874 5874 5874 5874 5874 5874 5873 5873 5872 5871 5870 5869 5868 5867 5866 5864 5863 5862 5860
5831 5834 5837 5841 5843 5846 5849 5852 5854 5857 5859 5861 5863 5864 5866 5867 5869 5870 5871 5871 5872 5872 5872 5873 5873 5873 5873 5873 5872 5872 5872 5871 5871 5870 5869 5868 5867 5866 5864 5863 5862 5860 5858
5824 5827 5831 5834 5837 5840 5843 5846 5849 5852 5855 5857 5859 5861 5862 5864 5865 5867 5868 5869 5869 5870 5870 5871 5871 5871 5871 5871 5871 5871 5870 5870 5869 5868 5867 5867 5866 5864 5863 5862 5860 5859 5857
5817 5820 5824 5827 5831 5834 5837 5841 5844 5847 5850 5852 5855 5857 5859 5860 5862 5863 5865 5866 5867 5867 5868 5869 5869 5869 5869 5869 5869 5869 5868 5868 5868 5867 5866 5865 5864 5863 5861 5860 5858 5857 5855
5808 5812 5816 5820 5824 5828 5831 5835 5838 5841 5845 5847 5850 5852 5855 5857 5858 5860 5861 5863 5864 5865 5865 5866 5867 5867 5867 5867 5867 5867 5867 5866 5866 5865 5864 5863 5862 5861 5859 5858 5856 5855 5853
5798 5803 5808 5812 5816 5820 5824 5828 5832 5835 5839 5842 5845 5848 5850 5852 5854 5856 5858 5859 5860 5862 5862 5863 5864 5864 5864 5865 5865 5865 5865 5864 5864 5863 5862 5861 5860 5859 5857 5856 5854 5852 5850
5789 5794 5799 5804 5809 5813 5817 5821 5825 5829 5832 5836 5839 5842 5845 5848 5850 5852 5854 5855 5857 5858 5859 5860 5861 5861 5862 5862 5862 5862 5862 5862 5861 5860 5859 5858 5857 5856 5855 5853 5852 5850 5847
5778 5784 5789 5795 5800 5805 5810 5814 5818 5822 5826 5829 5833 5836 5840 5842 5845 5847 5849 5851 5853 5854 5856 5857 5858 5858 5859 5859 5859 5859 5859 5859 5858 5858 5857 5856 5855 5853 5852 5850 5849 5847 5844
5767 5774 5780 5785 5791 5797 5802 5806 5811 5815 5819 5823 5827 5831 5834 5837 5840 5843 5845 5847 5849 5850 5852 5853 5854 5855 5855 5856 5856 5856 5856 5856 5855 5855 5854 5853 5852 5850 5849 5847 5845 5843 5841
5755 5762 5769 5776 5782 5788 5793 5798 5803 5808 5812 5816 5820 5824 5828 5831 5834 5837 5840 5842 5844 5846 5847 5849 5850 5851 5852 5852 5853 5853 5853 5852 5852 5851 5851 5850 5849 5847 5846 5844 5842 5840 5837
5742 5750 5758 5765 5772 5778 5784 5790 5795 5800 5805 5810 5814 5818 5822 5825 5829 5832 5835 5837 5839 5841 5843 5845 5846 5847 5848 5849 5849 5849 5849 5849 5848 5848 5847 5846 5845 5844 5842 5840 5838 5836 5833
5729 5738 5746 5754 5761 5768 5775 5781 5787 5792 5798 5802 5806 5811 5815 5819 5823 5826 5829 5832 5834 5836 5838 5840 5841 5843 5844 5844 5845 5845 5845 5845 5845 5844 5843 5842 5841 5840 5838 5836 5834 5832 5829
5717 5726 5735 5743 5751 5758 5765 5772 5778 5784 5790 5794 5799 5804 5808 5813 5816 5820 5823 5826 5829 5831 5833 5835 5837 5838 5839 5840 5841 5841 5841 5841 5840 5840 5839 5838 5837 5836 5834 5832 5830 5827 5824
5704 5714 5723 5732 5740 5747 5755 5762 5770 5775 5781 5786 5792 5796 5801 5806 5810 5813 5817 5820 5823 5825 5827 5830 5831 5833 5834 5835 5836 5836 5836 5836 5836 5835 5834 5833 5832 5831 5829 5827 5825 5822 5820
5690 5701 5711 5720 5729 5737 5745 5753 5760 5766 5771 5778 5783 5789 5793 5798 5803 5807 5810 5814 5817 5819 5822 5824 5826 5828 5829 5830 5831 5831 5831 5831 5831 5830 5830 5829 5827 5826 5824 5823 5820 5817 5814
5678 5689 5699 5709 5718 5727 5735 5743 5750 5756 5762 5769 5775 5781 5786 5791 5795 5800 5804 5807 5811 5813 5816 5818 5820 5822 5823 5825 5825 5826 5826 5826 5826 5825 5824 5823 5822 5821 5819 5817 5815 5812 5809
5666 5677 5688 5698 5708 5717 5725 5733 5739 5746 5753 5760 5767 5773 5778 5783 5788 5793 5797 5801 5804 5807 5810 5812 5815 5816 5818 5819 5820 5820 5821 5821 5820 5820 5819 5818 5817 5815 5814 5812 5809 5806 5803
5654 5665 5676 5687 5697 5706 5715 5723 5731 5738 5745 5752 5758 5764 5770 5775 5780 5785 5790 5794 5797 5801 5804 5806 5808 5810 5812 5813 5814 5814 5815 5815 5814 5814 5813 5813 5811 5810 5808 5806 5803 5800 5797
5643 5654 5665 5677 5687 5697 5706 5715 5723 5729 5736 5743 5749 5755 5761 5767 5772 5778 5782 5787 5790 5794 5797 5800 5802 5804 5805 5807 5808 5808 5809 5809 5808 5808 5808 5807 5805 5804 5802 5799 5797 5794 5790
5632 5643 5655 5666 5677 5687 5697 5705 5712 5720 5726 5733 5741 5747 5753 5759 5764 5770 5775 5779 5783 5787 5790 5793 5795 5797 5799 5800 5801 5802 5802 5803 5802 5802 5801 5800 5799 5797 5795 5793 5790 5787 5784
5622 5633 5645 5656 5666 5677 5686 5695 5703 5711 5719 5726 5733 5738 5744 5750 5756 5761 5767 5771 5776 5779 5783 5786 5788 5790 5792 5793 5794 5795 5796 5796 5796 5796 5795 5794 5792 5790 5788 5786 5783 5780 5777
5612 5623 5635 5645 5656 5666 5676 5686 5694 5703 5711 5717 5723 5729 5735 5741 5747 5753 5758 5763 5768 5772 5775 5778 5781 5783 5785 5786 5787 5788 5788 5789 5789 5789 5788 5787 5785 5784 5781 5779 5776 5773 5770
5602 5613 5624 5635 5645 5656 5666 5676 5685 5693 5701 5708 5714 5721 5727 5733 5739 5745 5750 5755 5759 5764 5767 5770 5773 5775 5777 5779 5780 5781 5782 5782 5782 5782 5781 5780 5778 5776 5774 5771 5769 5766 5762